Location: Ç?ral? Körfezi
(36.3984°N, 30.4829°E)
Time: 10:36:09
(UTC+00:00)

Cosmos 2333 Rocket - Visible Passes

Search period start: 07 February 2026 00:00
Search period end: 17 February 2026 00:00
Orbit: 838 x 864 km, 70.8° (Epoch: 7 February)

Date Brightness Start Highest point End Pass type
(mag) Time Alt. Az. Time Alt. Az. Time Alt. Az.
7 Feb 3.0 15:59:17 10° NNW 16:04:50 58° WSW 16:10:20 10° S visible
8 Feb 3.0 15:47:03 10° NNW 15:52:36 58° WSW 15:58:06 10° S visible
12 Feb 3.1 04:16:17 10° S 04:21:54 57° ESE 04:27:31 10° NNE visible
13 Feb 3.1 04:04:03 10° S 04:09:40 57° ESE 04:15:17 10° NNE visible
14 Feb 3.0 03:51:49 10° S 03:57:26 57° ESE 04:03:03 10° NNE visible
15 Feb 3.0 03:39:34 10° S 03:45:11 57° ESE 03:50:49 10° NNE visible
16 Feb 2.9 03:27:21 10° S 03:32:57 57° ESE 03:38:35 10° NNE visible
